Find Starlink 32673

NORAD ID: 63000 Int'l Des: 2025-031 Owner: SPXS Country: US Constellation: starlink operational
LEOCIRCULAR

Live Position

Loading 3D Globe...

About Starlink 32673

Description loading...

Upcoming Passes

Passes for default location (London). Set your location on the main map for personalized predictions.

Altitude History

Loading altitude history...

Two-Line Element Set

1 63000U 25031V 26125.44201289 .00043425 00000-0 15758-2 0 9992
2 63000 43.0003 182.9190 0001725 276.4235 83.6421 15.27631550 69773
Epoch: May 5, 2026 • Age: 19 hours

Current Status

Altitude 490.4 km
Velocity 7.62 km/s
Sub-Earth Point -31.81°S, 165.25°W
Launch Date Feb 11, 2025
Age 1.2 years
Type internet

Technical Details

Classification Payload
Mass 730.00 kg
Dry Mass 700.00 kg
Total Mass 730.00 kg
Length 0.30 m
Diameter 4.10 m
Span 29.00 m
Shape Box + pan
Manufacturer SPXS
Bus Type Starlink V2M
Phase Status In Orbit
Owner/State SPXS/US

Most Searched